Hourly Data Report for May 29, 2012

All times are specified in Local Standard Time (LST). Add 1 hour to adjust for Daylight Saving Time where and when it is observed.

DEER LAKE A
NEWFOUNDLAND

49°12'33.000" N
57°23'40.000" W
21.90 m
8401502
71809
YDF

Download Data

Hourly Data (May 2012)
Hourly Data Report for May 29, 2012
Temp Definition
°C
Dew Point Temp Definition
°C
Rel Hum Definition
%
Wind Dir Definition
10's deg

Wind Spd Definition
km/h
Visibility Definition
km
Stn Press Definition
kPa
Hmdx Definition


Wind Chill Definition


Weather Definition


TIME
00:30 -1.3 -2.1 94   0 10.0 101.43     LegendNANA
01:30 -1.9 -3.3 90   0 10.0 101.42     LegendNANA
02:30 -1.3 -3.2 87 21 4 10.0 101.41   -3 Mainly Clear
03:30 0.1 -1.8 87 22 6 10.0 101.44     LegendNANA
04:30 0.6 -0.7 91   0 10.0 101.47     LegendNANA
05:30 1.8 0.2 89 6 4 10.0 101.51     Mostly Cloudy
06:30 4.7 0.5 74 29 5 10.0 101.50     LegendNANA
07:30 6.2 -4.0 48 1 17 10.0 101.49     LegendNANA
08:30 7.1 -5.9 39 1 18 10.0 101.51     Mostly Cloudy
09:30 6.8 -4.6 44 35 16 10.0 101.54     LegendNANA
10:30 8.1 -4.4 41 30 17 10.0 101.49     LegendNANA
11:30 8.6 -3.3 43 30 17 10.0 101.46     Mainly Clear
12:30 10.1 -2.5 41 1 16 10.0 101.37     LegendNANA
13:30 10.4 -2.6 40 28 14 10.0 101.35     LegendNANA
14:30 11.0 -2.7 38 28 14 10.0 101.33     Mostly Cloudy
15:30 10.7 -2.0 41 32 15 10.0 101.35     LegendNANA
16:30 9.5 -2.4 43 31 19 10.0 101.40     LegendNANA
17:30 8.8 -2.8 44 31 20 10.0 101.43     Mostly Cloudy
18:30 9.0 -2.6 44 31 13 10.0 101.42     LegendNANA
19:30 7.3 -2.2 51 30 13 10.0 101.39     LegendNANA
20:30 5.0 -1.9 61 30 11 10.0 101.38     Mainly Clear
21:30 3.9 -2.1 65   0 10.0 101.38     LegendNANA
22:30 2.0 -1.8 76   0 10.0 101.37     LegendNANA
23:30 -0.7 -2.9 85 18 4 10.0 101.42   -2 Mainly Clear

Notes on Data Quality.

Legend

  • E = Estimated
  • M = Missing
  • NA = Not Available
Date modified: